2025-274F

Last updated on Wed Dec 31 2025 00:02:07 GMT+0000 (Coordinated Universal Time)

1 66655U 25274F 25364.52966819 .00000009 00000+0 64224-5 0 9995 2 66655 97.7326 291.3778 0003940 327.4553 32.6422 14.91210976 5055
UTC large
Height (km)
Speed (km/s)
/
Latitude / Longitude
Inclination (degrees)
Orbital Period (minutes)
Azimuth
Elevation
Range (km)
Doppler Factor

Next 0 passes for location: London (51.5072 / 0.1276)

Sorry there are no passes over London.